Time,TemperatureF,DewpointF,PressureIn,WindDirection,WindDirectionDegrees,WindSpeedMPH,WindSpeedGustMPH,Humidity,HourlyPrecipIn,Conditions,Clouds,dailyrainin,SoftwareType,DateUTC
2013-02-26 00:01:00,30.0,27.0,29.89,North,350,12.0,-999.0,86,-99.99,,,-99.99,,2013-02-26 06:01:00,
2013-02-26 00:11:00,30.0,27.0,29.88,North,350,14.0,-999.0,86,-99.99,,,-99.99,,2013-02-26 06:11:00,
2013-02-26 00:21:00,30.0,27.0,29.87,North,350,15.0,-999.0,86,-99.99,,,-99.99,,2013-02-26 06:21:00,
2013-02-26 00:31:00,30.0,27.0,29.86,North,350,15.0,20.0,86,-99.99,,,-99.99,,2013-02-26 06:31:00,
2013-02-26 00:41:00,30.0,27.0,29.86,North,350,13.0,-999.0,86,-99.99,,,-99.99,,2013-02-26 06:41:00,
2013-02-26 00:52:00,30.0,27.0,29.86,North,350,14.0,-999.0,86,-99.99,,,-99.99,,2013-02-26 06:52:00,
2013-02-26 01:01:00,30.0,27.0,29.86,North,350,14.0,-999.0,86,-99.99,,,-99.99,,2013-02-26 07:01:00,
2013-02-26 01:11:00,28.0,27.0,29.85,North,360,13.0,-999.0,92,-99.99,,,-99.99,,2013-02-26 07:11:00,
2013-02-26 01:22:00,28.0,25.0,29.84,North,350,12.0,-999.0,86,-99.99,,,-99.99,,2013-02-26 07:22:00,
2013-02-26 01:31:00,28.0,27.0,29.85,North,350,10.0,-999.0,92,-99.99,,,-99.99,,2013-02-26 07:31:00,
2013-02-26 01:41:00,28.0,27.0,29.84,North,350,8.0,-999.0,92,-99.99,,,-99.99,,2013-02-26 07:41:00,
2013-02-26 01:52:00,28.0,27.0,29.84,NNW,340,10.0,-999.0,92,-99.99,,,-99.99,,2013-02-26 07:52:00,
2013-02-26 02:01:00,28.0,27.0,29.84,NNW,340,10.0,-999.0,92,-99.99,,,-99.99,,2013-02-26 08:01:00,
2013-02-26 02:11:00,28.0,27.0,29.84,NNW,340,13.0,-999.0,92,-99.99,,,-99.99,,2013-02-26 08:11:00,
2013-02-26 02:21:00,28.0,27.0,29.84,NNW,340,14.0,-999.0,92,-99.99,,,-99.99,,2013-02-26 08:21:00,
2013-02-26 02:31:00,28.0,27.0,29.85,NNW,340,12.0,-999.0,92,-99.99,,,-99.99,,2013-02-26 08:31:00,
2013-02-26 02:41:00,28.0,27.0,29.84,NNW,340,12.0,-999.0,92,-99.99,,,-99.99,,2013-02-26 08:41:00,
2013-02-26 02:52:00,28.0,27.0,29.84,NNW,340,12.0,-999.0,92,-99.99,,,-99.99,,2013-02-26 08:52:00,
2013-02-26 03:01:00,28.0,27.0,29.84,NNW,340,12.0,-999.0,92,-99.99,,,-99.99,,2013-02-26 09:01:00,
2013-02-26 03:11:00,28.0,25.0,29.84,NNW,330,9.0,-999.0,86,-99.99,,,-99.99,,2013-02-26 09:11:00,
2013-02-26 03:21:00,28.0,25.0,29.83,NNW,340,9.0,-999.0,86,-99.99,,,-99.99,,2013-02-26 09:21:00,
2013-02-26 03:31:00,28.0,25.0,29.83,North,350,8.0,-999.0,86,-99.99,,,-99.99,,2013-02-26 09:31:00,
2013-02-26 03:43:00,28.0,25.0,29.83,North,350,7.0,-999.0,86,-99.99,,,-99.99,,2013-02-26 09:43:00,
2013-02-26 03:52:00,28.0,25.0,29.83,NNW,340,8.0,-999.0,86,-99.99,,,-99.99,,2013-02-26 09:52:00,
2013-02-26 04:01:00,28.0,25.0,29.83,NNW,340,8.0,-999.0,86,-99.99,,,-99.99,,2013-02-26 10:01:00,
2013-02-26 04:11:00,28.0,25.0,29.83,North,350,9.0,-999.0,86,-99.99,,,-99.99,,2013-02-26 10:11:00,
2013-02-26 04:21:00,28.0,25.0,29.83,North,350,10.0,-999.0,86,-99.99,,,-99.99,,2013-02-26 10:21:00,
2013-02-26 04:31:00,28.0,25.0,29.83,North,350,10.0,-999.0,86,-99.99,,,-99.99,,2013-02-26 10:31:00,
2013-02-26 04:41:00,28.0,25.0,29.83,North,350,9.0,-999.0,86,-99.99,,,-99.99,,2013-02-26 10:41:00,
2013-02-26 04:52:00,28.0,25.0,29.82,North,350,8.0,-999.0,86,-99.99,,,-99.99,,2013-02-26 10:52:00,
2013-02-26 05:01:00,28.0,25.0,29.82,North,350,8.0,-999.0,86,-99.99,,,-99.99,,2013-02-26 11:01:00,
2013-02-26 05:11:00,27.0,25.0,29.81,North,360,10.0,-999.0,92,-99.99,,,-99.99,,2013-02-26 11:11:00,
2013-02-26 05:21:00,27.0,25.0,29.81,North,360,14.0,20.0,92,-99.99,,,-99.99,,2013-02-26 11:21:00,
2013-02-26 05:31:00,27.0,23.0,29.81,North,350,15.0,-999.0,86,-99.99,,,-99.99,,2013-02-26 11:31:00,
2013-02-26 05:41:00,27.0,23.0,29.81,North,350,10.0,-999.0,86,-99.99,,,-99.99,,2013-02-26 11:41:00,
2013-02-26 05:52:00,27.0,23.0,29.81,North,360,13.0,-999.0,86,-99.99,,,-99.99,,2013-02-26 11:52:00,
2013-02-26 06:01:00,27.0,23.0,29.81,North,360,13.0,-999.0,86,-99.99,,,-99.99,,2013-02-26 12:01:00,
2013-02-26 06:11:00,27.0,23.0,29.82,North,350,14.0,-999.0,86,-99.99,,,-99.99,,2013-02-26 12:11:00,
2013-02-26 06:22:00,27.0,21.0,29.82,North,360,13.0,17.0,79,-99.99,,,-99.99,,2013-02-26 12:22:00,
2013-02-26 06:32:00,25.0,21.0,29.81,North,350,14.0,-999.0,85,-99.99,,,-99.99,,2013-02-26 12:32:00,
2013-02-26 06:42:00,25.0,21.0,29.81,North,350,13.0,-999.0,85,-99.99,,,-99.99,,2013-02-26 12:42:00,
2013-02-26 06:53:00,25.0,21.0,29.82,North,350,13.0,16.0,85,-99.99,,,-99.99,,2013-02-26 12:53:00,
2013-02-26 07:01:00,25.0,21.0,29.82,North,350,13.0,16.0,85,-99.99,,,-99.99,,2013-02-26 13:01:00,
2013-02-26 07:11:00,25.0,21.0,29.82,North,350,10.0,-999.0,85,-99.99,,,-99.99,,2013-02-26 13:11:00,
2013-02-26 07:21:00,25.0,21.0,29.82,NNW,340,8.0,-999.0,85,-99.99,,,-99.99,,2013-02-26 13:21:00,
2013-02-26 07:31:00,25.0,21.0,29.82,NNW,330,10.0,-999.0,85,-99.99,,,-99.99,,2013-02-26 13:31:00,
2013-02-26 07:42:00,25.0,21.0,29.82,NNW,330,12.0,-999.0,85,-99.99,,,-99.99,,2013-02-26 13:42:00,
2013-02-26 07:52:00,25.0,21.0,29.83,NNW,330,10.0,16.0,85,-99.99,,,-99.99,,2013-02-26 13:52:00,
2013-02-26 08:01:00,25.0,21.0,29.83,NNW,330,10.0,16.0,85,-99.99,,,-99.99,,2013-02-26 14:01:00,
2013-02-26 08:11:00,25.0,21.0,29.83,NNW,330,10.0,-999.0,85,-99.99,,,-99.99,,2013-02-26 14:11:00,
2013-02-26 08:21:00,25.0,21.0,29.83,NNW,330,7.0,-999.0,85,-99.99,,,-99.99,,2013-02-26 14:21:00,
2013-02-26 08:31:00,25.0,21.0,29.84,NNW,330,6.0,-999.0,85,-99.99,,,-99.99,,2013-02-26 14:31:00,
2013-02-26 08:42:00,25.0,21.0,29.84,NNW,330,6.0,-999.0,85,-99.99,,,-99.99,,2013-02-26 14:42:00,
2013-02-26 08:52:00,25.0,21.0,29.84,NNW,330,10.0,-999.0,85,-99.99,,,-99.99,,2013-02-26 14:52:00,
2013-02-26 09:02:00,25.0,21.0,29.84,NNW,330,10.0,-999.0,85,-99.99,,,-99.99,,2013-02-26 15:02:00,
2013-02-26 09:11:00,25.0,21.0,29.84,NNW,330,10.0,-999.0,85,-99.99,,,-99.99,,2013-02-26 15:11:00,
2013-02-26 09:21:00,25.0,21.0,29.86,NW,310,9.0,-999.0,85,-99.99,,,-99.99,,2013-02-26 15:21:00,
2013-02-26 09:32:00,25.0,21.0,29.86,NW,320,12.0,-999.0,85,-99.99,,,-99.99,,2013-02-26 15:32:00,
2013-02-26 09:42:00,25.0,21.0,29.86,NW,320,12.0,-999.0,85,-99.99,,,-99.99,,2013-02-26 15:42:00,
2013-02-26 09:52:00,27.0,21.0,29.85,NW,320,13.0,-999.0,79,-99.99,,,-99.99,,2013-02-26 15:52:00,
2013-02-26 10:01:00,27.0,21.0,29.85,NW,320,13.0,-999.0,79,-99.99,,,-99.99,,2013-02-26 16:01:00,
2013-02-26 10:11:00,27.0,21.0,29.85,NW,320,13.0,-999.0,79,-99.99,,,-99.99,,2013-02-26 16:11:00,
2013-02-26 10:22:00,27.0,23.0,29.84,NNW,340,10.0,-999.0,86,-99.99,,,-99.99,,2013-02-26 16:22:00,
2013-02-26 10:32:00,27.0,23.0,29.84,North,350,10.0,-999.0,86,-99.99,,,-99.99,,2013-02-26 16:32:00,
2013-02-26 10:42:00,27.0,23.0,29.84,North,350,10.0,-999.0,86,-99.99,,,-99.99,,2013-02-26 16:42:00,
2013-02-26 10:52:00,27.0,23.0,29.84,North,350,10.0,-999.0,86,-99.99,,,-99.99,,2013-02-26 16:52:00,
2013-02-26 11:01:00,27.0,23.0,29.84,North,350,10.0,-999.0,86,-99.99,,,-99.99,,2013-02-26 17:01:00,
2013-02-26 11:11:00,28.0,23.0,29.83,North,350,12.0,-999.0,79,-99.99,,,-99.99,,2013-02-26 17:11:00,
2013-02-26 11:21:00,28.0,23.0,29.83,North,350,10.0,-999.0,79,-99.99,,,-99.99,,2013-02-26 17:21:00,
2013-02-26 11:32:00,28.0,23.0,29.83,North,350,10.0,-999.0,79,-99.99,,,-99.99,,2013-02-26 17:32:00,
2013-02-26 11:42:00,28.0,23.0,29.83,North,350,10.0,-999.0,79,-99.99,,,-99.99,,2013-02-26 17:42:00,
2013-02-26 11:52:00,30.0,25.0,29.83,NNW,330,13.0,-999.0,80,-99.99,,,-99.99,,2013-02-26 17:52:00,
2013-02-26 12:01:00,30.0,25.0,29.83,NNW,330,13.0,-999.0,80,-99.99,,,-99.99,,2013-02-26 18:01:00,
2013-02-26 12:12:00,30.0,25.0,29.83,NNW,330,12.0,-999.0,80,-99.99,,,-99.99,,2013-02-26 18:12:00,
2013-02-26 12:21:00,30.0,25.0,29.83,NW,320,10.0,-999.0,80,-99.99,,,-99.99,,2013-02-26 18:21:00,
2013-02-26 12:32:00,30.0,25.0,29.84,NW,310,12.0,-999.0,80,-99.99,,,-99.99,,2013-02-26 18:32:00,
2013-02-26 12:42:00,30.0,25.0,29.84,NW,310,12.0,-999.0,80,-99.99,,,-99.99,,2013-02-26 18:42:00,
2013-02-26 12:52:00,32.0,25.0,29.84,NNW,340,9.0,-999.0,74,-99.99,,,-99.99,,2013-02-26 18:52:00,
2013-02-26 13:01:00,32.0,25.0,29.84,NNW,340,9.0,-999.0,74,-99.99,,,-99.99,,2013-02-26 19:01:00,
2013-02-26 13:11:00,32.0,25.0,29.84,NNW,340,9.0,-999.0,74,-99.99,,,-99.99,,2013-02-26 19:11:00,
2013-02-26 13:22:00,32.0,25.0,29.83,NW,310,9.0,-999.0,74,-99.99,,,-99.99,,2013-02-26 19:22:00,
2013-02-26 13:32:00,34.0,25.0,29.82,NW,320,10.0,-999.0,69,-99.99,,,-99.99,,2013-02-26 19:32:00,
2013-02-26 13:42:00,34.0,25.0,29.82,NW,320,10.0,-999.0,69,-99.99,,,-99.99,,2013-02-26 19:42:00,
2013-02-26 13:52:00,34.0,25.0,29.82,NW,320,10.0,-999.0,69,-99.99,,,-99.99,,2013-02-26 19:52:00,
2013-02-26 14:01:00,34.0,25.0,29.82,NW,320,10.0,-999.0,69,-99.99,,,-99.99,,2013-02-26 20:01:00,
2013-02-26 14:11:00,34.0,25.0,29.82,NW,320,10.0,-999.0,69,-99.99,,,-99.99,,2013-02-26 20:11:00,
2013-02-26 14:21:00,34.0,27.0,29.80,NNW,340,14.0,-999.0,74,-99.99,,,-99.99,,2013-02-26 20:21:00,
2013-02-26 14:32:00,34.0,27.0,29.79,NNW,340,10.0,-999.0,74,-99.99,,,-99.99,,2013-02-26 20:32:00,
2013-02-26 14:42:00,34.0,27.0,29.79,NNW,340,10.0,-999.0,74,-99.99,,,-99.99,,2013-02-26 20:42:00,
2013-02-26 14:52:00,34.0,27.0,29.80,NNW,340,13.0,-999.0,74,-99.99,,,-99.99,,2013-02-26 20:52:00,
2013-02-26 15:01:00,34.0,27.0,29.80,NNW,340,13.0,-999.0,74,-99.99,,,-99.99,,2013-02-26 21:01:00,
2013-02-26 15:11:00,34.0,27.0,29.80,NNW,340,13.0,-999.0,74,-99.99,,,-99.99,,2013-02-26 21:11:00,
2013-02-26 15:21:00,34.0,27.0,29.81,NNW,340,12.0,-999.0,74,-99.99,,,-99.99,,2013-02-26 21:21:00,
2013-02-26 15:31:00,36.0,27.0,29.82,NNW,330,10.0,-999.0,69,-99.99,,,-99.99,,2013-02-26 21:31:00,
2013-02-26 15:41:00,36.0,27.0,29.82,NNW,330,10.0,-999.0,69,-99.99,,,-99.99,,2013-02-26 21:41:00,
2013-02-26 15:51:00,36.0,27.0,29.82,NNW,340,9.0,-999.0,69,-99.99,,,-99.99,,2013-02-26 21:51:00,
2013-02-26 16:01:00,36.0,27.0,29.82,NNW,340,9.0,-999.0,69,-99.99,,,-99.99,,2013-02-26 22:01:00,
2013-02-26 16:11:00,36.0,27.0,29.82,NNW,340,9.0,-999.0,69,-99.99,,,-99.99,,2013-02-26 22:11:00,
2013-02-26 16:21:00,34.0,27.0,29.82,North,360,13.0,-999.0,74,-99.99,,,-99.99,,2013-02-26 22:21:00,
2013-02-26 16:31:00,34.0,27.0,29.82,North,360,14.0,-999.0,74,-99.99,,,-99.99,,2013-02-26 22:31:00,
2013-02-26 16:42:00,34.0,27.0,29.82,North,360,14.0,-999.0,74,-99.99,,,-99.99,,2013-02-26 22:42:00,
2013-02-26 16:52:00,34.0,27.0,29.82,North,350,10.0,-999.0,74,-99.99,,,-99.99,,2013-02-26 22:52:00,
2013-02-26 17:01:00,34.0,27.0,29.82,North,350,10.0,-999.0,74,-99.99,,,-99.99,,2013-02-26 23:01:00,
2013-02-26 17:11:00,34.0,27.0,29.82,North,350,10.0,-999.0,74,-99.99,,,-99.99,,2013-02-26 23:11:00,
2013-02-26 17:21:00,34.0,27.0,29.83,North,350,9.0,-999.0,74,-99.99,,,-99.99,,2013-02-26 23:21:00,
2013-02-26 17:31:00,32.0,27.0,29.84,NNW,340,12.0,-999.0,80,-99.99,,,-99.99,,2013-02-26 23:31:00,
2013-02-26 17:42:00,32.0,27.0,29.84,NNW,340,12.0,-999.0,80,-99.99,,,-99.99,,2013-02-26 23:42:00,
2013-02-26 17:52:00,32.0,27.0,29.85,North,350,10.0,-999.0,80,-99.99,,,-99.99,,2013-02-26 23:52:00,
2013-02-26 18:01:00,32.0,27.0,29.85,North,350,10.0,-999.0,80,-99.99,,,-99.99,,2013-02-27 00:01:00,
2013-02-26 18:11:00,32.0,27.0,29.85,North,350,10.0,-999.0,80,-99.99,,,-99.99,,2013-02-27 00:11:00,
2013-02-26 18:21:00,32.0,27.0,29.86,North,350,8.0,-999.0,80,-99.99,,,-99.99,,2013-02-27 00:21:00,
2013-02-26 18:31:00,32.0,27.0,29.87,NNW,330,8.0,-999.0,80,-99.99,,,-99.99,,2013-02-27 00:31:00,
2013-02-26 18:42:00,32.0,27.0,29.87,NNW,330,8.0,-999.0,80,-99.99,,,-99.99,,2013-02-27 00:42:00,
2013-02-26 18:52:00,32.0,27.0,29.88,NNW,330,9.0,-999.0,80,-99.99,,,-99.99,,2013-02-27 00:52:00,
2013-02-26 19:01:00,32.0,27.0,29.88,NNW,330,9.0,-999.0,80,-99.99,,,-99.99,,2013-02-27 01:01:00,
2013-02-26 19:11:00,32.0,27.0,29.88,NNW,330,9.0,-999.0,80,-99.99,,,-99.99,,2013-02-27 01:11:00,
2013-02-26 19:21:00,30.0,27.0,29.90,NNW,330,9.0,-999.0,86,-99.99,,,-99.99,,2013-02-27 01:21:00,
2013-02-26 19:31:00,30.0,27.0,29.90,NW,320,7.0,-999.0,86,-99.99,,,-99.99,,2013-02-27 01:31:00,
2013-02-26 19:42:00,30.0,27.0,29.90,NW,320,7.0,-999.0,86,-99.99,,,-99.99,,2013-02-27 01:42:00,
2013-02-26 19:52:00,30.0,27.0,29.90,NW,320,7.0,-999.0,86,-99.99,,,-99.99,,2013-02-27 01:52:00,
2013-02-26 20:01:00,30.0,27.0,29.90,NW,320,7.0,-999.0,86,-99.99,,,-99.99,,2013-02-27 02:01:00,
2013-02-26 20:14:00,30.0,27.0,29.90,NW,320,7.0,-999.0,86,-99.99,,,-99.99,,2013-02-27 02:14:00,
2013-02-26 20:22:00,30.0,28.0,29.91,NW,320,7.0,-999.0,92,-99.99,,,-99.99,,2013-02-27 02:22:00,
2013-02-26 20:32:00,30.0,28.0,29.91,NW,320,8.0,-999.0,92,-99.99,,,-99.99,,2013-02-27 02:32:00,
2013-02-26 20:42:00,30.0,28.0,29.91,NW,320,8.0,-999.0,92,-99.99,,,-99.99,,2013-02-27 02:42:00,
2013-02-26 20:52:00,30.0,28.0,29.91,NW,320,8.0,-999.0,92,-99.99,,,-99.99,,2013-02-27 02:52:00,
2013-02-26 21:02:00,30.0,28.0,29.91,NW,320,8.0,-999.0,92,-99.99,,,-99.99,,2013-02-27 03:02:00,
2013-02-26 21:11:00,30.0,28.0,29.91,NW,320,8.0,-999.0,92,-99.99,,,-99.99,,2013-02-27 03:11:00,
2013-02-26 21:21:00,30.0,28.0,29.92,NW,310,6.0,-999.0,92,-99.99,,,-99.99,,2013-02-27 03:21:00,
2013-02-26 21:32:00,30.0,28.0,29.93,WNW,300,5.0,-999.0,92,-99.99,,,-99.99,,2013-02-27 03:32:00,
2013-02-26 21:42:00,30.0,28.0,29.93,WNW,300,5.0,-999.0,92,-99.99,,,-99.99,,2013-02-27 03:42:00,
2013-02-26 21:52:00,30.0,28.0,29.94,NW,310,6.0,-999.0,92,-99.99,,,-99.99,,2013-02-27 03:52:00,
2013-02-26 22:01:00,30.0,28.0,29.94,NW,310,6.0,-999.0,92,-99.99,,,-99.99,,2013-02-27 04:01:00,
2013-02-26 22:11:00,30.0,28.0,29.94,NW,310,6.0,-999.0,92,-99.99,,,-99.99,,2013-02-27 04:11:00,
2013-02-26 22:21:00,30.0,28.0,29.94,NW,310,6.0,-999.0,92,-99.99,,,-99.99,,2013-02-27 04:21:00,
2013-02-26 22:32:00,30.0,28.0,29.95,WNW,300,5.0,-999.0,92,-99.99,,,-99.99,,2013-02-27 04:32:00,
2013-02-26 22:42:00,30.0,28.0,29.95,WNW,300,5.0,-999.0,92,-99.99,,,-99.99,,2013-02-27 04:42:00,
2013-02-26 22:52:00,30.0,28.0,29.95,WNW,300,5.0,-999.0,92,-99.99,,,-99.99,,2013-02-27 04:52:00,
2013-02-26 23:01:00,30.0,28.0,29.95,WNW,300,5.0,-999.0,92,-99.99,,,-99.99,,2013-02-27 05:01:00,
2013-02-26 23:12:00,30.0,28.0,29.95,WNW,300,5.0,-999.0,92,-99.99,,,-99.99,,2013-02-27 05:12:00,
2013-02-26 23:22:00,30.0,28.0,29.95,NW,320,8.0,-999.0,92,-99.99,,,-99.99,,2013-02-27 05:22:00,
2013-02-26 23:32:00,30.0,28.0,29.95,NW,320,8.0,-999.0,92,-99.99,,,-99.99,,2013-02-27 05:32:00,
2013-02-26 23:42:00,30.0,28.0,29.95,NW,320,8.0,-999.0,92,-99.99,,,-99.99,,2013-02-27 05:42:00,
2013-02-26 23:52:00,30.0,28.0,29.95,NW,310,8.0,-999.0,92,-99.99,,,-99.99,,2013-02-27 05:52:00,